When you browse on this site, cookies collect data to enhance your experience and personalize the content and advertising you see.
Visit our Privacy Policy to learn more. By continuing to use the site, you agree to this use of cookies and data.
  • In Österreich
  • Länderverzeichnis
  • Für 7 Tage
  • Wassertemperatur
  • Satellitenkarten
  • Wetterkarte
  • News
  • Widgets
  • user-avatar
    Anmelden

    Stündliche Wetter Fier

    Heute, 10 Dezember, Montag

    Zeit Temperatur Niederschläge Wind Luftdruck Luftfeuchtigkeit
    00:00 +9°C° 0.9 mm 5 m/S 754 mmHg 85%
    01:00 +10°C° 0 mm 5 m/S 753 mmHg 83%
    02:00 +9°C° 1 mm 5 m/S 753 mmHg 86%
    03:00 +9°C° 1 mm 5 m/S 752 mmHg 90%
    04:00 +9°C° 1 mm 5 m/S 752 mmHg 93%
    05:00 +9°C° 0.2 mm 5 m/S 753 mmHg 92%
    06:00 +8°C° 0.2 mm 6 m/S 753 mmHg 92%
    07:00 +8°C° 0.2 mm 6 m/S 753 mmHg 92%
    08:00 +9°C° 0.1 mm 6 m/S 753 mmHg 86%
    09:00 +10°C° 0.1 mm 6 m/S 754 mmHg 81%
    10:00 +11°C° 0.1 mm 6 m/S 754 mmHg 75%
    11:00 +13°C° 0 mm 6 m/S 754 mmHg 70%
    12:00 +13°C° 0 mm 5 m/S 755 mmHg 64%
    13:00 +14°C° 0 mm 5 m/S 755 mmHg 58%
    14:00 +13°C° 0 mm 5 m/S 755 mmHg 62%
    15:00 +12°C° 0 mm 4 m/S 755 mmHg 66%
    16:00 +11°C° 0 mm 4 m/S 756 mmHg 69%
    17:00 +10°C° 0 mm 4 m/S 756 mmHg 72%
    18:00 +9°C° 0 mm 3 m/S 756 mmHg 74%
    19:00 +9°C° 0 mm 3 m/S 757 mmHg 77%
    20:00 +8°C° 0 mm 3 m/S 757 mmHg 77%
    21:00 +8°C° 0 mm 3 m/S 757 mmHg 77%
    22:00 +8°C° 0 mm 3 m/S 758 mmHg 78%
    23:00 +7°C° 0 mm 3 m/S 758 mmHg 78%

    Morgen, 11 Dezember, Dienstag

    Zeit Temperatur Niederschläge Wind Luftdruck Luftfeuchtigkeit
    00:00 +7°C° 0 mm 3 m/S 758 mmHg 78%
    01:00 +7°C° 0 mm 3 m/S 758 mmHg 78%
    02:00 +6°C° 0 mm 4 m/S 758 mmHg 78%
    03:00 +6°C° 0 mm 4 m/S 758 mmHg 78%
    04:00 +6°C° 0 mm 4 m/S 758 mmHg 78%
    05:00 +5°C° 0 mm 4 m/S 759 mmHg 78%
    06:00 +5°C° 0 mm 4 m/S 759 mmHg 79%
    07:00 +5°C° 0 mm 3 m/S 759 mmHg 79%
    08:00 +6°C° 0 mm 4 m/S 760 mmHg 73%
    09:00 +7°C° 0 mm 4 m/S 760 mmHg 68%
    10:00 +8°C° 0 mm 4 m/S 760 mmHg 62%
    11:00 +10°C° 0 mm 4 m/S 760 mmHg 57%
    12:00 +10°C° 0 mm 4 m/S 760 mmHg 52%
    13:00 +10°C° 0 mm 3 m/S 760 mmHg 47%
    14:00 +10°C° 0 mm 3 m/S 760 mmHg 51%
    15:00 +9°C° 0 mm 3 m/S 760 mmHg 55%
    16:00 +8°C° 0 mm 3 m/S 760 mmHg 59%
    17:00 +7°C° 0 mm 2 m/S 761 mmHg 62%
    18:00 +7°C° 0 mm 2 m/S 761 mmHg 64%
    19:00 +6°C° 0 mm 2 m/S 762 mmHg 66%
    20:00 +6°C° 0.1 mm 2 m/S 762 mmHg 65%
    21:00 +6°C° 0.1 mm 2 m/S 762 mmHg 64%
    22:00 +6°C° 0.1 mm 2 m/S 762 mmHg 63%
    23:00 +6°C° 0.1 mm 2 m/S 762 mmHg 62%

    übermorgen, 12 Dezember, Mittwoch

    Zeit Temperatur Niederschläge Wind Luftdruck Luftfeuchtigkeit
    00:00 +5°C° 0.1 mm 2 m/S 762 mmHg 60%
    01:00 +4°C° 0.1 mm 3 m/S 763 mmHg 59%
    02:00 +4°C° 0 mm 3 m/S 763 mmHg 61%
    03:00 +5°C° 0 mm 2 m/S 763 mmHg 64%
    04:00 +4°C° 0 mm 2 m/S 763 mmHg 67%
    05:00 +4°C° 0 mm 2 m/S 763 mmHg 69%
    06:00 +4°C° 0 mm 2 m/S 764 mmHg 71%
    07:00 +4°C° 0 mm 2 m/S 764 mmHg 73%
    08:00 +5°C° 0 mm 2 m/S 764 mmHg 62%
    09:00 +6°C° 0 mm 2 m/S 764 mmHg 52%
    10:00 +8°C° 0 mm 2 m/S 765 mmHg 42%
    11:00 +8°C° 0 mm 2 m/S 764 mmHg 38%
    12:00 +9°C° 0 mm 2 m/S 764 mmHg 34%
    13:00 +10°C° 0 mm 2 m/S 764 mmHg 30%
    14:00 +10°C° 0 mm 1 m/S 764 mmHg 34%
    15:00 +9°C° 0 mm 1 m/S 763 mmHg 37%
    16:00 +8°C° 0 mm 1 m/S 763 mmHg 41%
    17:00 +6°C° 0 mm 2 m/S 763 mmHg 41%
    18:00 +6°C° 0 mm 2 m/S 764 mmHg 41%
    19:00 +4°C° 0 mm 3 m/S 764 mmHg 41%
    20:00 +4°C° 0 mm 3 m/S 764 mmHg 41%
    21:00 +4°C° 0 mm 3 m/S 763 mmHg 41%
    22:00 +5°C° 0 mm 4 m/S 763 mmHg 41%
    23:00 +5°C° 0.1 mm 4 m/S 763 mmHg 41%

    13 Dezember, Donnerstag

    Zeit Temperatur Niederschläge Wind Luftdruck Luftfeuchtigkeit
    00:00 +5°C° 0.1 mm 4 m/S 763 mmHg 41%
    01:00 +5°C° 0.1 mm 4 m/S 762 mmHg 41%
    02:00 +5°C° 0.4 mm 4 m/S 762 mmHg 45%
    03:00 +5°C° 0.4 mm 4 m/S 761 mmHg 50%
    04:00 +5°C° 0.4 mm 4 m/S 761 mmHg 55%
    05:00 +5°C° 0.2 mm 4 m/S 761 mmHg 62%
    06:00 +5°C° 0.2 mm 5 m/S 761 mmHg 70%
    07:00 +3°C° 0.2 mm 5 m/S 761 mmHg 77%
    08:00 +5°C° 0 mm 5 m/S 761 mmHg 76%
    09:00 +6°C° 0 mm 5 m/S 761 mmHg 75%
    10:00 +7°C° 0 mm 5 m/S 761 mmHg 73%
    11:00 +8°C° 0.1 mm 5 m/S 760 mmHg 73%
    12:00 +9°C° 0.1 mm 5 m/S 760 mmHg 72%
    13:00 +10°C° 0.1 mm 5 m/S 759 mmHg 72%
    14:00 +11°C° 0.3 mm 4 m/S 759 mmHg 76%
    15:00 +10°C° 0.3 mm 4 m/S 759 mmHg 79%
    16:00 +10°C° 0.3 mm 3 m/S 759 mmHg 83%
    17:00 +10°C° 0.2 mm 3 m/S 759 mmHg 84%
    18:00 +10°C° 0.2 mm 3 m/S 760 mmHg 85%
    19:00 +9°C° 0.2 mm 3 m/S 760 mmHg 86%
    20:00 +9°C° 0.3 mm 3 m/S 760 mmHg 86%
    21:00 +10°C° 0.3 mm 4 m/S 760 mmHg 86%
    22:00 +10°C° 0.3 mm 4 m/S 761 mmHg 86%
    23:00 +10°C° 0.2 mm 4 m/S 760 mmHg 86%

    14 Dezember, Freitag

    Zeit Temperatur Niederschläge Wind Luftdruck Luftfeuchtigkeit
    00:00 +10°C° 0.2 mm 4 m/S 760 mmHg 86%
    01:00 +10°C° 0.2 mm 4 m/S 760 mmHg 86%
    02:00 +10°C° 0.1 mm 4 m/S 760 mmHg 86%
    03:00 +8°C° 0.1 mm 4 m/S 761 mmHg 85%
    04:00 +8°C° 0.1 mm 4 m/S 761 mmHg 85%
    05:00 +8°C° 0 mm 4 m/S 761 mmHg 85%
    06:00 +8°C° 0 mm 4 m/S 761 mmHg 84%
    07:00 +8°C° 0 mm 4 m/S 761 mmHg 84%
    08:00 +10°C° 0 mm 5 m/S 762 mmHg 80%
    09:00 +13°C° 0 mm 5 m/S 762 mmHg 77%
    10:00 +14°C° 0 mm 5 m/S 762 mmHg 73%
    11:00 +15°C° 0 mm 5 m/S 762 mmHg 70%
    12:00 +16°C° 0 mm 5 m/S 762 mmHg 67%
    13:00 +17°C° 0 mm 5 m/S 762 mmHg 64%
    14:00 +17°C° 0.1 mm 4 m/S 762 mmHg 68%
    15:00 +15°C° 0.1 mm 4 m/S 762 mmHg 72%
    16:00 +14°C° 0.1 mm 4 m/S 762 mmHg 76%
    17:00 +13°C° 0.1 mm 4 m/S 763 mmHg 78%
    18:00 +12°C° 0.1 mm 4 m/S 763 mmHg 79%
    19:00 +12°C° 0.1 mm 4 m/S 763 mmHg 80%
    20:00 +11°C° 0.1 mm 4 m/S 764 mmHg 79%
    21:00 +11°C° 0.1 mm 4 m/S 764 mmHg 79%
    22:00 +11°C° 0.1 mm 4 m/S 764 mmHg 78%
    23:00 +11°C° 0 mm 4 m/S 764 mmHg 78%

    15 Dezember, Samstag

    Zeit Temperatur Niederschläge Wind Luftdruck Luftfeuchtigkeit
    00:00 +10°C° 0 mm 3 m/S 764 mmHg 78%
    01:00 +10°C° 0 mm 3 m/S 764 mmHg 78%
    02:00 +10°C° 0 mm 3 m/S 764 mmHg 78%
    03:00 +10°C° 0 mm 3 m/S 764 mmHg 78%
    04:00 +10°C° 0 mm 3 m/S 764 mmHg 78%
    05:00 +10°C° 0 mm 3 m/S 765 mmHg 77%
    06:00 +9°C° 0 mm 3 m/S 765 mmHg 77%
    07:00 +9°C° 0 mm 3 m/S 765 mmHg 77%
    08:00 +11°C° 0 mm 3 m/S 765 mmHg 73%
    09:00 +13°C° 0 mm 3 m/S 766 mmHg 69%
    10:00 +15°C° 0 mm 2 m/S 766 mmHg 65%
    11:00 +16°C° 0 mm 2 m/S 766 mmHg 62%
    12:00 +17°C° 0 mm 2 m/S 765 mmHg 58%
    13:00 +19°C° 0 mm 1 m/S 765 mmHg 54%
    14:00 +17°C° 0 mm 2 m/S 765 mmHg 59%
    15:00 +16°C° 0 mm 2 m/S 765 mmHg 63%
    16:00 +15°C° 0 mm 2 m/S 765 mmHg 68%
    17:00 +14°C° 0 mm 2 m/S 766 mmHg 70%
    18:00 +13°C° 0 mm 2 m/S 766 mmHg 72%
    19:00 +11°C° 0 mm 3 m/S 766 mmHg 75%
    20:00 +11°C° 0 mm 3 m/S 766 mmHg 75%
    21:00 +11°C° 0 mm 3 m/S 766 mmHg 76%
    22:00 +10°C° 0 mm 3 m/S 766 mmHg 77%
    23:00 +10°C° 0 mm 3 m/S 766 mmHg 77%
    Mehr zeigen